Weather History for Big Bear City, CA

Change the Weather History Date:

Thursday, April 11, 2013

  Actual Average (KBUO) Record (KBUO)
Temperature  
Mean Temperature 44 °F -  
Max Temperature 59 °F 61 °F 64 °F (1997)
Min Temperature 28 °F 40 °F 39 °F (1999)
Degree Days  
Heating Degree Days 22    
Moisture  
Dew Point 19 °F    
Average Humidity 40    
Maximum Humidity 65    
Minimum Humidity 19    
Precipitation  
Precipitation 0.00 in - - ()
Sea Level Pressure  
Sea Level Pressure 30.03 in    
Wind  
Wind Speed 3 mph (WSW)    
Max Wind Speed 20 mph    
Max Gust Speed 29 mph    
Visibility 10 miles    
Events      
Averages and records for this station are not official NWS values.
T = Trace of Precipitation, MM = Missing Value Source: NWS Daily Summary

Daily Weather History Graph

Daily Weather History Graph

Search for Another Location

Airport:

Trip Planner

Search our weather history database for the weather conditions in past years. The results will help you decide how hot, cold, wet, or windy it might be!

Date:

Astronomy

Apr. 11, 2013 Rise Set
Actual Time 6:20 AM PDT 7:16 PM PDT
Civil Twilight 5:55 AM PDT 7:41 PM PDT
Nautical Twilight 5:24 AM PDT 8:12 PM PDT
Astronomical Twilight 4:53 AM PDT 8:43 PM PDT
Moon 6:59 AM PDT (4/11) 8:49 PM PDT (4/11)
Length of Visible Light 13h 46m
Length of Day
12h 55m
New Moon, 2% of the Moon is Illuminated
Apr 11
New Moon
Apr 18
First Quarter
Apr 25
Full
May 2
Last Quarter
May 9
New

Hourly Weather History & Observations

Time (PDT) Temp. Windchill Dew Point Humidity Pressure Visibility Wind Dir Wind Speed Gust Speed Precip Events Conditions
12:15 AM 30.2 °F - 10.4 °F 44% 30.19 in 10.0 mi Calm Calm - N/A   Clear
12:35 AM 30.2 °F - 12.2 °F 47% 30.18 in 10.0 mi Calm Calm - N/A   Clear
12:55 AM 30.2 °F - 12.2 °F 47% 30.18 in 10.0 mi Calm Calm - N/A   Clear
1:15 AM 30.2 °F 26.7 °F 12.2 °F 47% 30.17 in 10.0 mi SW 3.5 mph - N/A   Clear
1:35 AM 30.2 °F - 14.0 °F 51% 30.17 in 10.0 mi Calm Calm - N/A   Clear
1:55 AM 30.2 °F - 14.0 °F 51% 30.16 in 10.0 mi Calm Calm - N/A   Clear
2:15 AM 30.2 °F - 14.0 °F 51% 30.15 in 10.0 mi Calm Calm - N/A   Clear
2:35 AM 30.2 °F - 15.8 °F 55% 30.14 in 10.0 mi Calm Calm - N/A   Clear
2:55 AM 28.4 °F - 14.0 °F 55% 30.13 in 10.0 mi Calm Calm - N/A   Clear
3:15 AM 28.4 °F - 14.0 °F 55% 30.12 in 10.0 mi Calm Calm - N/A   Clear
3:35 AM 28.4 °F - 14.0 °F 55% 30.12 in 10.0 mi Calm Calm - N/A   Clear
3:55 AM 28.4 °F - 14.0 °F 55% 30.11 in 10.0 mi Calm Calm - N/A   Clear
4:15 AM 28.4 °F - 14.0 °F 55% 30.10 in 10.0 mi Calm Calm - N/A   Clear
4:35 AM 28.4 °F - 17.6 °F 64% 30.10 in 10.0 mi Calm Calm - N/A   Clear
4:55 AM 28.4 °F - 17.6 °F 64% 30.09 in 10.0 mi Calm Calm - N/A   Clear
5:15 AM 28.4 °F - 14.0 °F 55% 30.09 in 10.0 mi Calm Calm - N/A   Clear
5:35 AM 28.4 °F - 14.0 °F 55% 30.09 in 10.0 mi Calm Calm - N/A   Clear
5:55 AM 28.4 °F - 14.0 °F 55% 30.08 in 10.0 mi Calm Calm - N/A   Clear
6:15 AM 28.4 °F - 14.0 °F 55% 30.08 in 10.0 mi Calm Calm - N/A   Clear
6:35 AM 28.4 °F - 14.0 °F 55% 30.08 in 5.0 mi Calm Calm - N/A   Haze
6:55 AM 30.2 °F - 14.0 °F 51% 30.08 in 10.0 mi Calm Calm - N/A   Clear
7:15 AM 30.2 °F - 17.6 °F 60% 30.07 in 10.0 mi Calm Calm - N/A   Clear
7:35 AM 32.0 °F - 19.4 °F 60% 30.07 in 10.0 mi Calm Calm - N/A   Clear
7:55 AM 35.6 °F - 24.8 °F 65% 30.06 in 10.0 mi Calm Calm - N/A   Clear
8:15 AM 41.0 °F - 26.6 °F 57% 30.07 in 10.0 mi Calm Calm - N/A   Clear
8:35 AM 46.4 °F 44.3 °F 23.0 °F 40% 30.06 in 10.0 mi West 4.6 mph - N/A   Clear
8:55 AM 51.8 °F - 17.6 °F 26% 30.06 in 10.0 mi WSW 8.1 mph - N/A   Clear
9:15 AM 53.6 °F - 17.6 °F 24% 30.05 in 10.0 mi West 15.0 mph 20.7 mph N/A   Clear
9:35 AM 53.6 °F - 15.8 °F 22% 30.05 in 10.0 mi WSW 9.2 mph 17.3 mph N/A   Clear
10:15 AM 55.4 °F - 17.6 °F 23% 30.05 in 10.0 mi West 19.6 mph 28.8 mph N/A   Clear
10:35 AM 55.4 °F - 17.6 °F 23% 30.06 in 10.0 mi WSW 9.2 mph 23.0 mph N/A   Clear
10:55 AM 57.2 °F - 15.8 °F 20% 30.05 in 10.0 mi SW 12.7 mph 19.6 mph N/A   Clear
11:15 AM 55.4 °F - 19.4 °F 25% 30.04 in 10.0 mi WSW 11.5 mph 18.4 mph N/A   Mostly Cloudy
11:35 AM 57.2 °F - 19.4 °F 23% 30.04 in 10.0 mi West 11.5 mph 20.7 mph N/A   Scattered Clouds
11:55 AM 55.4 °F - 15.8 °F 21% 30.03 in 10.0 mi SSW 9.2 mph 19.6 mph N/A   Overcast
12:15 PM 57.2 °F - 17.6 °F 21% 30.03 in 10.0 mi WSW 10.4 mph - N/A   Mostly Cloudy
12:35 PM 57.2 °F - 19.4 °F 23% 30.03 in 10.0 mi West 13.8 mph 23.0 mph N/A   Scattered Clouds
12:55 PM 59.0 °F - 17.6 °F 20% 30.02 in 10.0 mi West 8.1 mph 20.7 mph N/A   Mostly Cloudy
1:15 PM 59.0 °F - 15.8 °F 19% 30.01 in 10.0 mi WSW 11.5 mph 23.0 mph N/A   Mostly Cloudy
1:35 PM 59.0 °F - 17.6 °F 20% 30.01 in 10.0 mi WSW 10.4 mph 19.6 mph N/A   Scattered Clouds
1:55 PM 59.0 °F - 17.6 °F 20% 30.00 in 10.0 mi West 11.5 mph - N/A   Clear
2:15 PM 59.0 °F - 17.6 °F 20% 30.00 in 10.0 mi West 11.5 mph 17.3 mph N/A   Clear
2:35 PM 59.0 °F - 17.6 °F 20% 29.99 in 10.0 mi South 6.9 mph - N/A   Clear
2:55 PM 59.0 °F - 15.8 °F 19% 29.98 in 10.0 mi SW 6.9 mph 17.3 mph N/A   Clear
3:15 PM 59.0 °F - 17.6 °F 20% 29.97 in 10.0 mi West 12.7 mph - N/A   Clear
3:35 PM 59.0 °F - 19.4 °F 22% 29.96 in 10.0 mi West 9.2 mph 18.4 mph N/A   Clear
3:55 PM 57.2 °F - 19.4 °F 23% 29.95 in 10.0 mi West 11.5 mph - N/A   Clear
4:15 PM 59.0 °F - 21.2 °F 23% 29.95 in 10.0 mi WSW 9.2 mph - N/A   Clear
4:35 PM 57.2 °F - 21.2 °F 25% 29.94 in 10.0 mi West 12.7 mph 17.3 mph N/A   Clear
4:55 PM 55.4 °F - 21.2 °F 26% 29.94 in 10.0 mi West 11.5 mph - N/A   Clear
5:15 PM 55.4 °F - 21.2 °F 26% 29.94 in 10.0 mi West 11.5 mph - N/A   Clear
5:35 PM 55.4 °F - 21.2 °F 26% 29.94 in 10.0 mi WSW 5.8 mph - N/A   Clear
5:55 PM 53.6 °F - 19.4 °F 26% 29.94 in 10.0 mi West 6.9 mph - N/A   Clear
6:15 PM 53.6 °F - 21.2 °F 28% 29.94 in 10.0 mi West 8.1 mph - N/A   Clear
6:35 PM 51.8 °F - 21.2 °F 30% 29.94 in 10.0 mi West 6.9 mph - N/A   Clear
6:55 PM 51.8 °F - 23.0 °F 33% 29.94 in 10.0 mi WSW 5.8 mph - N/A   Clear
7:15 PM 50.0 °F - 23.0 °F 35% 29.94 in 10.0 mi Calm Calm - N/A   Clear
7:35 PM 48.2 °F - 23.0 °F 37% 29.94 in 10.0 mi Calm Calm - N/A   Clear
7:55 PM 46.4 °F - 23.0 °F 40% 29.94 in 10.0 mi Calm Calm - N/A   Clear
8:15 PM 44.6 °F - 24.8 °F 46% 29.94 in 10.0 mi Calm Calm - N/A   Mostly Cloudy
8:35 PM 44.6 °F - 24.8 °F 46% 29.95 in 10.0 mi Calm Calm - N/A   Mostly Cloudy
8:55 PM 42.8 °F - 23.0 °F 46% 29.95 in 10.0 mi Calm Calm - N/A   Scattered Clouds
9:15 PM 41.0 °F - 24.8 °F 53% 29.95 in 10.0 mi Calm Calm - N/A   Clear
9:35 PM 39.2 °F - 23.0 °F 52% 29.96 in 10.0 mi Calm Calm - N/A   Clear
9:55 PM 37.4 °F - 23.0 °F 56% 29.96 in 10.0 mi Calm Calm - N/A   Clear
10:15 PM 37.4 °F - 23.0 °F 56% 29.96 in 10.0 mi Calm Calm - N/A   Clear
10:35 PM 35.6 °F - 23.0 °F 60% 29.97 in 10.0 mi Calm Calm - N/A   Clear
10:55 PM 35.6 °F - 23.0 °F 60% 29.96 in 10.0 mi Calm Calm - N/A   Clear
11:15 PM 35.6 °F - 23.0 °F 60% 29.96 in 10.0 mi Calm Calm - N/A   Clear
11:35 PM 35.6 °F - 23.0 °F 60% 29.96 in 10.0 mi Calm Calm - N/A   Clear
11:55 PM 33.8 °F - 23.0 °F 65% 29.96 in 10.0 mi Calm Calm - N/A   Clear